Regional Weather Roundup
Issued by NWS Green Bay, WI

Home | Current Version | Previous Version | Graphics & Text | Print | Product List | Glossary Off
Versions: 1 2 3 4 5 6 7 8 9 10 11 12 13 14 15 16 17 18 19 20 21 22 23 24 25 26 27 28 29 30 31 32 33 34 35 36 37 38 39 40 41 42 43 44 45 46 47 48 49 50

000
ASUS43 KGRB 311911
RWRGRB

NORTH-CENTRAL AND NORTHEAST WISCONSIN REGIONAL WEATHER ROUNDUP
NATIONAL WEATHER SERVICE GREEN BAY WI
200 PM CDT TUE MAY 31 2016

WIZ005-009-010>012-018-019-312000-
NORTH CENTRAL WISCONSIN

CITY           SKY/WX    TMP DP  RH WIND       PRES   REMARKS
IRONWOOD       CLOUDY    66  54  63 SE13G20     N/A
MANITOWISH WTR NOT AVBL
ARBOR VITAE      N/A    N/A N/A N/A MISG        N/A
EAGLE RIVER      N/A     71  49  45 SE13G23   29.99F
LAND O LAKES   CLOUDY    70  49  47 SE14G21   30.01S
RHINELANDER    PTSUNNY   73  51  46 S15G23    30.00S
PHILLIPS       CLOUDY    72  58  61 S10       29.93F
ANTIGO         PTSUNNY   68  55  63 SE15      30.02S
TOMAHAWK       MOSUNNY   73  55  53 SE10      29.97F
MERRILL        NOT AVBL
$$

WIZ013-073-312000-
NORTHEAST WISCONSIN

CITY           SKY/WX    TMP DP  RH WIND       PRES   REMARKS
IRON MOUNTAIN  MOSUNNY   70  46  42 SE15G23   30.03S
MARINETTE      SUNNY     61  46  59 E13       30.07S
OCONTO         SUNNY     64  47  53 NE8       30.05S
$$

WIZ017-030-035>037-045-312000-
CENTRAL WISCONSIN

CITY           SKY/WX    TMP DP  RH WIND       PRES   REMARKS
MEDFORD        MOSUNNY   73  60  64 SE14G20   29.95S
WAUSAU         CLOUDY    73  55  53 SE15      29.97S
MOSINEE        MOSUNNY   70  57  64 SE14      30.00S
MARSHFIELD     CLOUDY    73  59  61 S15G25    29.95F
WISC RAPIDS    CLOUDY    78  60  53 SE16G24   29.98S
STEVENS POINT  CLOUDY    68  58  72 SE6       29.99F
WAUPACA        CLOUDY    73  57  58 E13       30.01S
SHAWANO        MOSUNNY   70  53  54 E12       30.04S
CLINTONVILLE   CLOUDY    70  54  56 E8G17     30.02S
WAUTOMA        RAIN     N/A N/A N/A SW12G23   30.03R
$$

WIZ038-039-048-051-312000-
FOX VALLEY

CITY           SKY/WX    TMP DP  RH WIND       PRES   REMARKS
NWS GREEN BAY  SUNNY     69  56  62 NE10      30.04R
APPLETON       MOSUNNY   72  54  53 E9        30.00F
OSHKOSH        CLOUDY    73  56  54 S10       30.01R
FOND DU LAC    CLOUDY    73  55  53 S14G24    30.03R
$$

WIZ022-050-052-312000-
EAST CENTRAL WISCONSIN

CITY           SKY/WX    TMP DP  RH WIND       PRES   REMARKS
EPHRAIM        FAIR      62  46  55 E9        30.06F
STURGEON BAY   MOSUNNY   65  50  58 E8        30.06S
MANITOWOC      MOSUNNY   64  53  67 VRB7      30.04F
SHEBOYGAN      CLOUDY    64  53  67 E9        30.03S
$$

LMZ563-521-522-541>543-312000-
LAKESHORE

STATION/POSITION TIME  TEMP    WIND        PRES    VSBY  WAVE
                       AIR SEA DIR/SP/G                  HT/PER
                 (UTC) (F)     (DEG/KT/KT) (MB)    (MI)  (FT/S)
SHEBOYGAN LKSHOR 1900   50     360/  9/ 10 1017.6F
KEWAUNEE LKSHORE 1800   50      20/ 10/ 15 1017.4F
ALGOMA MARINA    1817           40/ 19/ 24   N/A
NORTHPORT PIER   1800   53      80/  7/  9 1018.6F
N MID LAKE BUOY  1850   49 48   50/  6/  6 1018.2S         1/ 3
SISTER BAY LKSHO 1820   67     110/ 11/ 16   N/A
CHAMBERS ISLAND  1800   55      10/ 10/ 12 1018.6F
MENOMINEE LKSHOR 1800   53      30/ 14/ 15 1017.3F
$$




USA.gov is the U.S. government's official web portal to all federal, state and local government web resources and services.